HK4DAP-11 Weather Reports


time (UTC)temp
C
wind
direction
speed
KPH
gust
KPH
rain 1hr
cm
rain 24hr
cm
rain mn
cm
humidity
%
barometer
mb
20260504160230 24 0.0 0.0 0.00 0.00 0.00 80 851.6
20260504151104 24 0.0 0.0 0.00 0.00 0.00 79 852.0
20260504150603 24 0.0 0.0 0.00 0.00 0.00 79 852.1
20260504150103 24 0.0 0.0 0.00 0.00 0.00 79 852.2
20260504141103 25 0.0 0.0 0.00 0.00 0.00 79 852.2
20260504140602 25 0.0 0.0 0.00 0.00 0.00 78 852.2
20260504130600 24 0.0 0.0 0.00 0.00 0.00 78 852.2
20260504110557 25 0.0 0.0 0.00 0.00 0.00 78 850.8
20260504100555 25 0.0 0.0 0.00 0.00 0.00 80 850.8
20260504081552 25 0.0 0.0 0.00 0.00 0.00 78 850.7
20260504081052 25 0.0 0.0 0.00 0.00 0.00 78 850.7
20260504080551 25 0.0 0.0 0.00 0.00 0.00 78 850.8
20260504050546 25 0.0 0.0 0.00 0.00 0.00 79 851.9
20260504045546 25 0.0 0.0 0.00 0.00 0.00 77 851.7
20260504045046 25 0.0 0.0 0.00 0.00 0.00 77 851.7
20260504044546 25 0.0 0.0 0.00 0.00 0.00 77 851.8
20260504044046 25 0.0 0.0 0.00 0.00 0.00 77 851.7
20260504043545 25 0.0 0.0 0.00 0.00 0.00 76 851.6
20260504043045 25 0.0 0.0 0.00 0.00 0.00 77 851.5
20260504042545 25 0.0 0.0 0.00 0.00 0.00 77 851.5
20260504042046 25 0.0 0.0 0.00 0.00 0.00 78 851.4
20260504041545 25 0.0 0.0 0.00 0.00 0.00 78 851.4
20260504041045 25 0.0 0.0 0.00 0.00 0.00 78 851.4
20260504040545 25 0.0 0.0 0.00 0.00 0.00 78 851.4
20260504040046 25 0.0 0.0 0.00 0.00 0.00 78 851.3
20260504035544 25 0.0 0.0 0.00 0.00 0.00 79 851.3
20260504035044 25 0.0 0.0 0.00 0.00 0.00 78 851.4
20260504034544 25 0.0 0.0 0.00 0.00 0.00 76 851.5
20260504034044 25 0.0 0.0 0.00 0.00 0.00 78 851.4
20260504033544 25 0.0 0.0 0.00 0.00 0.00 79 851.4
20260504033044 25 0.0 0.0 0.00 0.00 0.00 79 851.4
20260504032545 25 0.0 0.0 0.00 0.00 0.00 79 851.4
20260504032043 25 0.0 0.0 0.00 0.00 0.00 79 851.5
20260504031543 25 0.0 0.0 0.00 0.00 0.00 79 851.4
20260504031044 25 0.0 0.0 0.00 0.00 0.00 77 851.3
20260504030543 25 0.0 0.0 0.00 0.00 0.00 78 851.3
20260504030043 25 0.0 0.0 0.00 0.00 0.00 78 851.3
20260504025543 25 0.0 0.0 0.00 0.00 0.00 78 851.4
20260504025043 25 0.0 0.0 0.00 0.00 0.00 78 851.3
20260504024542 25 0.0 0.0 0.00 0.00 0.00 78 851.3
20260504024042 25 0.0 0.0 0.00 0.00 0.00 78 851.2
20260504023542 25 0.0 0.0 0.00 0.00 0.00 78 851.2
20260504023042 25 0.0 0.0 0.00 0.00 0.00 76 851.3
20260504022542 25 0.0 0.0 0.00 0.00 0.00 79 851.4
20260504022042 25 0.0 0.0 0.00 0.00 0.00 79 851.4
20260504021542 25 0.0 0.0 0.00 0.00 0.00 79 851.3
20260504021041 25 0.0 0.0 0.00 0.00 0.00 79 851.2
20260504020541 25 0.0 0.0 0.00 0.00 0.00 79 851.2
20260504020041 25 0.0 0.0 0.00 0.00 0.00 79 851.1
20260504015541 25 0.0 0.0 0.00 0.00 0.00 78 851.1
20260504015041 25 0.0 0.0 0.00 0.00 0.00 77 851.0
20260504014541 25 0.0 0.0 0.00 0.00 0.00 77 850.9
20260504014041 25 0.0 0.0 0.00 0.00 0.00 76 850.8
20260504013540 25 0.0 0.0 0.00 0.00 0.00 76 850.7
20260504013155 25 0.0 0.0 0.00 0.00 0.00 76 850.7
20260504012540 25 0.0 0.0 0.00 0.00 0.00 76 850.6
20260504012040 25 0.0 0.0 0.00 0.00 0.00 75 850.6
20260504011540 25 0.0 0.0 0.00 0.00 0.00 75 850.4
20260504011055 25 0.0 0.0 0.00 0.00 0.00 75 850.3
20260504010549 25 0.0 0.0 0.00 0.00 0.00 75 850.1
20260504010047 25 0.0 0.0 0.00 0.00 0.00 75 850.1
20260504005539 25 0.0 0.0 0.00 0.00 0.00 75 850.0
20260504005039 25 0.0 0.0 0.00 0.00 0.00 75 850.0
20260504004540 25 0.0 0.0 0.00 0.00 0.00 75 850.0
20260504004039 25 0.0 0.0 0.00 0.00 0.00 75 849.9
20260504003539 25 0.0 0.0 0.00 0.00 0.00 74 849.8
20260504003039 25 0.0 0.0 0.00 0.00 0.00 74 849.7
20260504002538 25 0.0 0.0 0.00 0.00 0.00 74 849.6
20260504002038 25 0.0 0.0 0.00 0.00 0.00 74 849.4
20260504001538 25 0.0 0.0 0.00 0.00 0.00 74 849.4
20260504001039 25 0.0 0.0 0.00 0.00 0.00 74 849.4
20260504000538 25 0.0 0.0 0.00 0.00 0.00 74 849.5
20260504000038 25 0.0 0.0 0.00 0.00 0.00 73 849.4
20260503235537 25 0.0 0.0 0.00 0.00 0.00 73 849.4
20260503235037 25 0.0 0.0 0.00 0.00 0.00 73 849.3
20260503234537 25 0.0 0.0 0.00 0.00 0.00 73 849.1
20260503234039 25 0.0 0.0 0.00 0.00 0.00 72 849.1
20260503233537 25 0.0 0.0 0.00 0.00 0.00 72 849.0
20260503233037 25 0.0 0.0 0.00 0.00 0.00 72 848.9
20260503232537 25 0.0 0.0 0.00 0.00 0.00 70 848.8
20260503232037 25 0.0 0.0 0.00 0.00 0.00 70 848.7
20260503231536 25 0.0 0.0 0.00 0.00 0.00 71 848.7
20260503231036 25 0.0 0.0 0.00 0.00 0.00 71 848.6
20260503230536 25 0.0 0.0 0.00 0.00 0.00 70 848.5
20260503230036 25 0.0 0.0 0.00 0.00 0.00 69 848.5
20260503225536 25 0.0 0.0 0.00 0.00 0.00 68 848.5
20260503225037 25 0.0 0.0 0.00 0.00 0.00 68 848.4
20260503224536 25 0.0 0.0 0.00 0.00 0.00 67 848.3
20260503224035 25 0.0 0.0 0.00 0.00 0.00 67 848.2
20260503223535 25 0.0 0.0 0.00 0.00 0.00 67 848.0
20260503223036 25 0.0 0.0 0.00 0.00 0.00 66 847.9
20260503222817 25 0.0 0.0 0.00 0.00 0.00 66 847.8
20260503222043 25 0.0 0.0 0.00 0.00 0.00 65 847.7
20260503221535 25 0.0 0.0 0.00 0.00 0.00 63 847.7
20260503221139 25 0.0 0.0 0.00 0.00 0.00 62 847.6
20260503220546 25 0.0 0.0 0.00 0.00 0.00 63 847.6
20260503220034 25 0.0 0.0 0.00 0.00 0.00 63 847.5
20260503215534 25 0.0 0.0 0.00 0.00 0.00 63 847.6
20260503215034 25 0.0 0.0 0.00 0.00 0.00 63 847.5
20260503214534 25 0.0 0.0 0.00 0.00 0.00 63 847.5
20260503214034 25 0.0 0.0 0.00 0.00 0.00 62 847.5
20260503213534 25 0.0 0.0 0.00 0.00 0.00 62 847.5
20260503213033 25 0.0 0.0 0.00 0.00 0.00 62 847.5
20260503212534 25 0.0 0.0 0.00 0.00 0.00 62 847.5
20260503212033 25 0.0 0.0 0.00 0.00 0.00 62 847.4
20260503211533 25 0.0 0.0 0.00 0.00 0.00 62 847.5
20260503211033 25 0.0 0.0 0.00 0.00 0.00 61 847.5
20260503210533 25 0.0 0.0 0.00 0.00 0.00 60 847.6
20260503210033 26 0.0 0.0 0.00 0.00 0.00 60 847.6
20260503205532 25 0.0 0.0 0.00 0.00 0.00 61 847.7
20260503205032 25 0.0 0.0 0.00 0.00 0.00 60 847.8
20260503204532 25 0.0 0.0 0.00 0.00 0.00 59 847.8
20260503204032 25 0.0 0.0 0.00 0.00 0.00 60 847.8
20260503203532 26 0.0 0.0 0.00 0.00 0.00 60 847.8
20260503203032 26 0.0 0.0 0.00 0.00 0.00 60 847.9
20260503202532 26 0.0 0.0 0.00 0.00 0.00 60 847.9
20260503202031 26 0.0 0.0 0.00 0.00 0.00 60 848.0
20260503201531 25 0.0 0.0 0.00 0.00 0.00 61 848.0
20260503201031 25 0.0 0.0 0.00 0.00 0.00 63 848.1
20260503200531 25 0.0 0.0 0.00 0.00 0.00 63 848.2
20260503200031 25 0.0 0.0 0.00 0.00 0.00 62 848.2
20260503195531 25 0.0 0.0 0.00 0.00 0.00 62 848.3
20260503195031 26 0.0 0.0 0.00 0.00 0.00 61 848.4
20260503194530 26 0.0 0.0 0.00 0.00 0.00 60 848.4
20260503194030 26 0.0 0.0 0.00 0.00 0.00 60 848.6
20260503193530 26 0.0 0.0 0.00 0.00 0.00 60 848.6
20260503193030 26 0.0 0.0 0.00 0.00 0.00 60 848.6
20260503192530 25 0.0 0.0 0.00 0.00 0.00 61 848.7
20260503192030 26 0.0 0.0 0.00 0.00 0.00 60 848.8
20260503191530 26 0.0 0.0 0.00 0.00 0.00 60 848.7
20260503191029 26 0.0 0.0 0.00 0.00 0.00 60 848.9
20260503190529 26 0.0 0.0 0.00 0.00 0.00 60 849.0
20260503190029 26 0.0 0.0 0.00 0.00 0.00 61 848.9
20260503185529 26 0.0 0.0 0.00 0.00 0.00 59 849.0
20260503185141 26 0.0 0.0 0.00 0.00 0.00 60 849.1
20260503184529 26 0.0 0.0 0.00 0.00 0.00 61 849.2
20260503184029 26 0.0 0.0 0.00 0.00 0.00 60 849.3
20260503183529 26 0.0 0.0 0.00 0.00 0.00 60 849.4
20260503183028 26 0.0 0.0 0.00 0.00 0.00 60 849.6
20260503182528 26 0.0 0.0 0.00 0.00 0.00 57 849.6
20260503182028 26 0.0 0.0 0.00 0.00 0.00 58 849.7
20260503181528 26 0.0 0.0 0.00 0.00 0.00 57 849.8
20260503181031 26 0.0 0.0 0.00 0.00 0.00 58 849.9
20260503180528 26 0.0 0.0 0.00 0.00 0.00 59 849.9
20260503180031 26 0.0 0.0 0.00 0.00 0.00 58 850.0
20260503175527 26 0.0 0.0 0.00 0.00 0.00 59 850.1
20260503175029 26 0.0 0.0 0.00 0.00 0.00 61 850.2
20260503174527 26 0.0 0.0 0.00 0.00 0.00 60 850.3
20260503174027 26 0.0 0.0 0.00 0.00 0.00 61 850.4
20260503173527 26 0.0 0.0 0.00 0.00 0.00 61 850.6
20260503173027 26 0.0 0.0 0.00 0.00 0.00 64 850.7
20260503172526 26 0.0 0.0 0.00 0.00 0.00 62 850.8
20260503172027 26 0.0 0.0 0.00 0.00 0.00 63 851.0
20260503171526 25 0.0 0.0 0.00 0.00 0.00 64 851.2
20260503171026 25 0.0 0.0 0.00 0.00 0.00 62 851.3
20260503170526 25 0.0 0.0 0.00 0.00 0.00 61 851.4